When you browse on this site, cookies collect data to enhance your experience and personalize the content and advertising you see.
Visit our Privacy Policy to learn more. By continuing to use the site, you agree to this use of cookies and data.
  • In Austria
  • List of Countries
  • For 7 days
  • Water Temperature
  • Satellite Maps
  • Weather Map
  • News
  • Weather Widgets
  • user-avatar
    Login

    Hourly Weather Ronchamp

    Today, 22 July, Monday

    Time Temperature Precipitation Wind Pressure Humidity
    00:00 +19°C° 0 mm 1 mps 731 mmHg 91%
    01:00 +19°C° 0 mm 1 mps 731 mmHg 91%
    02:00 +19°C° 0 mm 1 mps 731 mmHg 91%
    03:00 +19°C° 0 mm 1 mps 731 mmHg 92%
    04:00 +19°C° 0 mm 1 mps 731 mmHg 89%
    05:00 +20°C° 0 mm 1 mps 732 mmHg 86%
    06:00 +22°C° 0 mm 1 mps 732 mmHg 80%
    07:00 +24°C° 0 mm 1 mps 732 mmHg 72%
    08:00 +26°C° 0 mm 1 mps 733 mmHg 64%
    09:00 +28°C° 0 mm 1 mps 733 mmHg 57%
    10:00 +29°C° 0 mm 1 mps 733 mmHg 53%
    11:00 +30°C° 0 mm 1 mps 733 mmHg 48%
    12:00 +30°C° 0 mm 1 mps 732 mmHg 44%
    13:00 +30°C° 0 mm 1 mps 732 mmHg 45%
    14:00 +30°C° 0 mm 2 mps 732 mmHg 46%
    15:00 +30°C° 0 mm 2 mps 732 mmHg 46%
    16:00 +28°C° 0 mm 1 mps 731 mmHg 56%
    17:00 +27°C° 0 mm 1 mps 731 mmHg 65%
    18:00 +25°C° 0 mm 1 mps 731 mmHg 74%
    19:00 +24°C° 0 mm 1 mps 731 mmHg 77%
    20:00 +22°C° 0 mm 1 mps 731 mmHg 79%
    21:00 +21°C° 0 mm 1 mps 731 mmHg 81%
    22:00 +21°C° 0 mm 1 mps 731 mmHg 78%
    23:00 +20°C° 0 mm 1 mps 731 mmHg 74%

    Tomorrow, 23 July, Tuesday

    Time Temperature Precipitation Wind Pressure Humidity
    00:00 +20°C° 0 mm 1 mps 730 mmHg 71%
    01:00 +19°C° 0 mm 2 mps 730 mmHg 71%
    02:00 +19°C° 0 mm 2 mps 730 mmHg 70%
    03:00 +18°C° 0 mm 2 mps 730 mmHg 70%
    04:00 +19°C° 0 mm 2 mps 730 mmHg 72%
    05:00 +20°C° 0 mm 2 mps 729 mmHg 73%
    06:00 +21°C° 0 mm 2 mps 729 mmHg 75%
    07:00 +24°C° 0 mm 2 mps 729 mmHg 69%
    08:00 +26°C° 0 mm 2 mps 730 mmHg 64%
    09:00 +28°C° 0 mm 2 mps 730 mmHg 58%
    10:00 +29°C° 0 mm 2 mps 729 mmHg 55%
    11:00 +30°C° 0 mm 2 mps 729 mmHg 52%
    12:00 +32°C° 0 mm 2 mps 729 mmHg 49%
    13:00 +32°C° 0 mm 2 mps 729 mmHg 48%
    14:00 +32°C° 0 mm 2 mps 729 mmHg 46%
    15:00 +33°C° 0 mm 1 mps 728 mmHg 45%
    16:00 +31°C° 0 mm 1 mps 728 mmHg 54%
    17:00 +30°C° 0 mm 1 mps 728 mmHg 62%
    18:00 +28°C° 0 mm 1 mps 727 mmHg 71%
    19:00 +27°C° 0 mm 1 mps 727 mmHg 73%
    20:00 +25°C° 0 mm 1 mps 727 mmHg 76%
    21:00 +24°C° 0 mm 1 mps 727 mmHg 78%
    22:00 +23°C° 0 mm 1 mps 727 mmHg 78%
    23:00 +23°C° 0 mm 1 mps 727 mmHg 79%

    Day after tomorrow, 24 July, Wednesday

    Time Temperature Precipitation Wind Pressure Humidity
    00:00 +23°C° 0 mm 1 mps 727 mmHg 80%
    01:00 +22°C° 0 mm 1 mps 726 mmHg 81%
    02:00 +22°C° 0 mm 1 mps 726 mmHg 82%
    03:00 +21°C° 0 mm 1 mps 726 mmHg 83%
    04:00 +22°C° 0 mm 1 mps 726 mmHg 81%
    05:00 +23°C° 0 mm 1 mps 726 mmHg 80%
    06:00 +24°C° 0 mm 1 mps 726 mmHg 78%
    07:00 +26°C° 0 mm 1 mps 727 mmHg 70%
    08:00 +28°C° 0 mm 1 mps 727 mmHg 63%
    09:00 +31°C° 0 mm 1 mps 727 mmHg 55%
    10:00 +32°C° 0 mm 1 mps 727 mmHg 50%
    11:00 +33°C° 0 mm 1 mps 727 mmHg 46%
    12:00 +35°C° 0 mm 1 mps 727 mmHg 41%
    13:00 +35°C° 0 mm 1 mps 727 mmHg 39%
    14:00 +35°C° 0 mm 1 mps 726 mmHg 37%
    15:00 +35°C° 0 mm 1 mps 726 mmHg 35%
    16:00 +33°C° 0 mm 1 mps 726 mmHg 44%
    17:00 +30°C° 0 mm 0 mps 726 mmHg 53%
    18:00 +28°C° 0 mm 0 mps 725 mmHg 62%
    19:00 +26°C° 0 mm 0 mps 726 mmHg 65%
    20:00 +26°C° 0 mm 1 mps 726 mmHg 68%
    21:00 +24°C° 0 mm 1 mps 726 mmHg 70%
    22:00 +24°C° 0 mm 1 mps 726 mmHg 71%
    23:00 +24°C° 0 mm 1 mps 726 mmHg 72%

    25 July, Thursday

    Time Temperature Precipitation Wind Pressure Humidity
    00:00 +23°C° 0 mm 1 mps 726 mmHg 73%
    01:00 +23°C° 0 mm 1 mps 726 mmHg 74%
    02:00 +22°C° 0 mm 1 mps 726 mmHg 75%
    03:00 +22°C° 0 mm 1 mps 726 mmHg 77%
    04:00 +23°C° 0 mm 1 mps 726 mmHg 76%
    05:00 +24°C° 0 mm 1 mps 726 mmHg 75%
    06:00 +25°C° 0 mm 1 mps 726 mmHg 75%
    07:00 +27°C° 0 mm 1 mps 726 mmHg 68%
    08:00 +29°C° 0 mm 1 mps 726 mmHg 61%
    09:00 +31°C° 0 mm 1 mps 726 mmHg 53%
    10:00 +32°C° 0 mm 1 mps 726 mmHg 49%
    11:00 +34°C° 0 mm 1 mps 726 mmHg 45%
    12:00 +35°C° 0 mm 1 mps 726 mmHg 41%
    13:00 +35°C° 0 mm 1 mps 726 mmHg 39%
    14:00 +35°C° 0 mm 1 mps 725 mmHg 37%
    15:00 +35°C° 0 mm 1 mps 725 mmHg 35%
    16:00 +33°C° 0 mm 1 mps 725 mmHg 44%
    17:00 +32°C° 0 mm 1 mps 725 mmHg 54%
    18:00 +30°C° 0 mm 1 mps 725 mmHg 63%
    19:00 +28°C° 0 mm 1 mps 725 mmHg 64%
    20:00 +27°C° 0 mm 1 mps 725 mmHg 65%
    21:00 +25°C° 0 mm 1 mps 725 mmHg 67%
    22:00 +25°C° 0 mm 1 mps 725 mmHg 67%
    23:00 +25°C° 0 mm 1 mps 725 mmHg 67%

    26 July, Friday

    Time Temperature Precipitation Wind Pressure Humidity
    00:00 +25°C° 0 mm 1 mps 724 mmHg 67%
    01:00 +24°C° 0 mm 1 mps 724 mmHg 71%
    02:00 +23°C° 0 mm 1 mps 724 mmHg 75%
    03:00 +23°C° 0 mm 1 mps 724 mmHg 79%
    04:00 +22°C° 0 mm 0 mps 724 mmHg 77%
    05:00 +23°C° 0 mm 0 mps 724 mmHg 76%
    06:00 +24°C° 0 mm 0 mps 724 mmHg 75%
    07:00 +28°C° 0 mm 1 mps 724 mmHg 66%
    08:00 +29°C° 0 mm 1 mps 724 mmHg 57%
    09:00 +31°C° 0 mm 2 mps 725 mmHg 48%
    10:00 +32°C° 0 mm 2 mps 724 mmHg 45%
    11:00 +34°C° 0 mm 2 mps 724 mmHg 42%
    12:00 +34°C° 0 mm 2 mps 724 mmHg 39%
    13:00 +35°C° 0 mm 2 mps 724 mmHg 39%
    14:00 +35°C° 0 mm 2 mps 723 mmHg 38%
    15:00 +34°C° 0 mm 1 mps 723 mmHg 37%
    16:00 +33°C° 0 mm 1 mps 723 mmHg 45%
    17:00 +31°C° 0 mm 1 mps 723 mmHg 53%
    18:00 +30°C° 0 mm 1 mps 723 mmHg 61%
    19:00 +28°C° 0.1 mm 1 mps 723 mmHg 66%
    20:00 +26°C° 0.1 mm 1 mps 723 mmHg 70%
    21:00 +24°C° 0.1 mm 2 mps 723 mmHg 75%
    22:00 +23°C° 0 mm 1 mps 723 mmHg 77%
    23:00 +22°C° 0 mm 1 mps 723 mmHg 79%

    27 July, Saturday

    Time Temperature Precipitation Wind Pressure Humidity
    00:00 +20°C° 0 mm 0 mps 723 mmHg 82%
    01:00 +21°C° 0.6 mm 1 mps 723 mmHg 85%
    02:00 +20°C° 0.6 mm 1 mps 723 mmHg 89%
    03:00 +20°C° 0.6 mm 1 mps 723 mmHg 93%
    04:00 +20°C° 0.4 mm 1 mps 723 mmHg 94%
    05:00 +21°C° 0.4 mm 1 mps 724 mmHg 95%
    06:00 +21°C° 0.4 mm 1 mps 724 mmHg 97%
    07:00 +22°C° 0 mm 1 mps 724 mmHg 95%
    08:00 +21°C° 0 mm 2 mps 724 mmHg 93%
    09:00 +23°C° 0 mm 2 mps 724 mmHg 91%
    10:00 +23°C° 0.1 mm 2 mps 724 mmHg 88%
    11:00 +24°C° 0.1 mm 2 mps 724 mmHg 85%
    12:00 +24°C° 0.1 mm 3 mps 724 mmHg 81%
    13:00 +25°C° 0.1 mm 3 mps 724 mmHg 78%
    14:00 +25°C° 0.1 mm 3 mps 724 mmHg 75%
    15:00 +26°C° 0.1 mm 3 mps 724 mmHg 72%
    16:00 +26°C° 0.1 mm 2 mps 724 mmHg 74%
    17:00 +25°C° 0.1 mm 2 mps 724 mmHg 77%
    18:00 +25°C° 0.1 mm 1 mps 725 mmHg 79%
    19:00 +24°C° 0.1 mm 1 mps 725 mmHg 83%
    20:00 +22°C° 0.1 mm 1 mps 725 mmHg 86%
    21:00 +21°C° 0.1 mm 1 mps 725 mmHg 89%
    22:00 +20°C° 0.1 mm 1 mps 725 mmHg 90%
    23:00 +19°C° 0.1 mm 1 mps 725 mmHg 91%
    Show more